Location: Claremont
(33.9858°S, 18.4575°E)
Time: 11:14:43
(UTC+00:00)

Meteor 1-18 Rocket - Pass Details

Date: 03 March 2021
Orbit: 837 x 909 km, 81.2° (Epoch: 09 April)

Event Time Altitude Azimuth Distance (km) Brightness Sun altitude
Rises 18:11:22 0° 7° (N) 3,473 7.2 -11.3°
Reaches altitude 10° 18:13:52 10° 11° (N) 2,532 6.4 -11.8°
Maximum altitude 18:19:27 53° 86° (E) 1,068 4.4 -12.9°
Drops below altitude 10° 18:24:58 10° 161° (SSE) 2,515 6.7 -14.0°
Sets 18:27:27 0° 165° (SSE) 3,449 7.4 -14.5°
